CZ-6A DEB, 56620

Orbit data source: Space-Track

CZ-6A DEB, 56620 is space debris in SSO originally from a launch on Fri, 11 Nov 2022 UTC launched from the Taiyaun Space Center, China (TSC). Debris objects in space refer to the collection of defunct objects orbiting the Earth. Examples of debris include non-operational satellites, rocket bodies, and fragments generated from explosions, collisions, or faulty payload assembly.

Loading next visibility...
Identifier
56620, 2022-151AEU
Orbit
SSO
Country
Flag of CNCN / PRC
Related business
Manufacturer
SAST
Mission
Spacecraft
Bus & Motor
Unknown
Mass
Unknown
Launch date (UTC)
2022-11-11 (3 years ago)
Launch vehicle
Unknown
Launch site
Taiyaun Space Center, China (TSC)
Object type
Payload
Rocket body
Debris
Shape & HBR
Unknown shape, 0.1 m
Radar Cross Section
Small (<0.1 m²)

Expand to show TLE details & history
Last TLE update: 1 day ago

TLE from 1 day ago
0 CZ-6A DEB
1 56620U 22151AEU 25351.36379103  .00000548  00000-0  45326-3 0  9998
2 56620  98.9115 310.7386 0155106 247.2141 111.2567 13.87717457138983
Epoch: 2025-12-17T08:43Z
TLE epoch observation values (Epoch: 2025-12-17T08:43:51.544Z)
Latitude
-0.00001°
Longitude
93.53912°
Altitude
982.162 km
Speed
7.339 km/s
True Right ascension
20h 42m 57s
True Declination
0° 00' 00"
Sunlit
Object was in daylight at epoch
Visualization orbit readout
Latitude
Unknown
Longitude
Unknown
Altitude
Unknown
Speed
Unknown
Apparent Right ascension
Unknown
Apparent Declination
Unknown
Sunlit
N/A
Visualization observer readout
Local Sidereal Time
11:25:30
Azimuth
Unknown
Elevation
Unknown
Doppler factor
Unknown
Orbital elements
Apogee altitude
1,047.265 km
Perigee altitude
820.438 km
Semi-major axis
7,311.988 km
Eccentricity
0.01551
Inclination
98.9115°
RAAN
310.7386°
Arg. of periapsis
247.2141°
True anomaly
112.90137°
Mean anomaly
111.2567°
Eccentric anomaly
112.08021°
Mean motion
3.47128 °/min
Orbital period
103.71 mins
BSTAR
0.00045326
Loading maneuver chart data...
Computing Atmospheric mass density...
Loading historical data...
Loading historical data...
Loading historical data...
Loading historical data...
Loading historical data...
Loading historical data...
Loading historical data...

Documentation

Showing up to 5 results
|